Weather History for Tupelo, MS

Change the Weather History Date:

Friday, March 15, 2013

  Actual Average Record
Temperature  
Mean Temperature 59 °F 54 °F  
Max Temperature 78 °F 65 °F 84 °F (2012)
Min Temperature 40 °F 42 °F 22 °F (1932)
Degree Days  
Heating Degree Days 6 12  
Month to date heating degree days 284 202  
Since 1 July heating degree days 2510 2633  
Cooling Degree Days 0 0  
Month to date cooling degree days 0 0  
Year to date cooling degree days 6 2  
Growing Degree Days 8 (Base 50)    
Moisture  
Dew Point 40 °F    
Average Humidity 52    
Maximum Humidity 73    
Minimum Humidity 31    
Precipitation  
Precipitation 0.00 in 0.15 in 2.82 in (1973)
Month to date precipitation 1.37 2.46  
Year to date precipitation 13.80 11.90  
Snow  
Snow 0.00 in 0.00 in 0.50 in (1937)
Month to date snowfall T 0.2  
Since 1 July snowfall T 2.0  
Snow Depth 0.00 in    
Sea Level Pressure  
Sea Level Pressure 30.08 in    
Wind  
Wind Speed 9 mph (SW)    
Max Wind Speed 20 mph    
Max Gust Speed 29 mph    
Visibility 10 miles    
Events      
T = Trace of Precipitation, MM = Missing Value Source: NWS Daily Summary

Daily Weather History Graph

Daily Weather History Graph

Search for Another Location

Airport:

Trip Planner

Search our weather history database for the weather conditions in past years. The results will help you decide how hot, cold, wet, or windy it might be!

Date:

Astronomy

Mar. 15, 2013 Rise Set
Actual Time 7:05 AM CDT 7:03 PM CDT
Civil Twilight 6:40 AM CDT 7:28 PM CDT
Nautical Twilight 6:11 AM CDT 7:57 PM CDT
Astronomical Twilight 5:41 AM CDT 8:26 PM CDT
Moon 9:06 AM CDT (3/15) 11:04 PM CDT (3/15)
Length of Visible Light 12h 47m
Length of Day
11h 57m
Waxing Crescent, 15% of the Moon is Illuminated
Mar 15
Waxing Crescent
Mar 19
First Quarter
Mar 27
Full
Apr 2
Last Quarter
Apr 10
New

Hourly Weather History & Observations

Time (CDT) Temp. Windchill Dew Point Humidity Pressure Visibility Wind Dir Wind Speed Gust Speed Precip Events Conditions
12:53 AM 43.0 °F 40.3 °F 33.1 °F 68% 30.22 in 10.0 mi SW 4.6 mph - N/A   Clear
1:53 AM 42.1 °F 38.4 °F 34.0 °F 73% 30.20 in 10.0 mi SSW 5.8 mph - N/A   Clear
2:53 AM 43.0 °F 40.3 °F 33.1 °F 68% 30.19 in 10.0 mi SSW 4.6 mph - N/A   Clear
3:53 AM 41.0 °F 37.1 °F 33.1 °F 73% 30.17 in 10.0 mi SSW 5.8 mph - N/A   Clear
4:53 AM 41.0 °F 37.1 °F 33.1 °F 73% 30.15 in 10.0 mi SSW 5.8 mph - N/A   Clear
5:53 AM 41.0 °F 37.1 °F 34.0 °F 76% 30.15 in 10.0 mi SSW 5.8 mph - N/A   Clear
6:53 AM 41.0 °F 38.0 °F 33.1 °F 73% 30.15 in 10.0 mi SW 4.6 mph - N/A   Clear
7:53 AM 45.0 °F 42.6 °F 36.0 °F 71% 30.15 in 10.0 mi SW 4.6 mph - N/A   Clear
8:53 AM 55.0 °F - 39.0 °F 55% 30.15 in 10.0 mi West 10.4 mph - N/A   Clear
9:53 AM 61.0 °F - 41.0 °F 48% 30.14 in 10.0 mi West 12.7 mph - N/A   Clear
10:53 AM 66.9 °F - 43.0 °F 42% 30.13 in 10.0 mi West 10.4 mph - N/A   Clear
11:53 AM 72.0 °F - 45.0 °F 38% 30.12 in 10.0 mi West 15.0 mph 20.7 mph N/A   Clear
12:53 PM 73.9 °F - 46.0 °F 37% 30.10 in 10.0 mi WSW 12.7 mph 18.4 mph N/A   Clear
1:53 PM 75.0 °F - 46.9 °F 37% 30.06 in 10.0 mi WSW 12.7 mph 19.6 mph N/A   Clear
2:53 PM 77.0 °F - 46.9 °F 34% 30.03 in 10.0 mi West 13.8 mph 19.6 mph N/A   Clear
3:53 PM 77.0 °F - 44.1 °F 31% 30.01 in 10.0 mi West 13.8 mph 25.3 mph N/A   Clear
4:53 PM 77.0 °F - 44.1 °F 31% 29.99 in 10.0 mi WSW 16.1 mph 23.0 mph N/A   Clear
5:53 PM 75.9 °F - 43.0 °F 31% 29.98 in 10.0 mi WSW 11.5 mph 20.7 mph N/A   Clear
6:53 PM 72.0 °F - 43.0 °F 35% 29.97 in 10.0 mi WSW 5.8 mph - N/A   Clear
7:53 PM 68.0 °F - 43.0 °F 40% 29.96 in 10.0 mi SW 5.8 mph - N/A   Clear
8:53 PM 64.9 °F - 43.0 °F 45% 29.97 in 10.0 mi SW 5.8 mph - N/A   Clear
9:53 PM 62.1 °F - 43.0 °F 50% 29.96 in 10.0 mi SW 5.8 mph - N/A   Clear
10:53 PM 60.1 °F - 43.0 °F 53% 29.95 in 10.0 mi SW 4.6 mph - N/A   Clear
11:53 PM 64.9 °F - 41.0 °F 42% 29.95 in 10.0 mi WSW 9.2 mph - N/A   Clear